Location: Claflin County Park
(44.8478°N, 87.5507°W)
Time: 01:30:50
(UTC+00:00)

Cosmos 2058 Rocket - Pass Details

Date: 10 December 2025
Orbit: 603 x 633 km, 82.5° (Epoch: 17 January)

Event Time Altitude Azimuth Distance (km) Brightness Sun altitude
Exits shadow 11:23:42 13° 351° (N) 1,830 5.2 -19.3°
Maximum altitude 11:27:43 89° 267° (W) 627 3.0 -18.6°
Drops below altitude 10° 11:32:06 10° 173° (S) 1,972 5.9 -17.8°
Sets 11:34:18 0° 173° (S) 2,867 6.8 -17.5°
